Regional Weather Roundup
Issued by NWS

Home | Current Version | Previous Version | Graphics & Text | Print | Product List | Glossary On
Versions: 1 2 3 4 5 6 7 8 9 10 11 12 13 14 15 16 17 18 19 20 21 22 23 24 25 26 27 28 29 30 31 32 33 34 35 36 37 38 39 40 41 42 43 44 45 46 47 48 49 50
000
ASUS45 KBOI 181910
RWRID

IDAHO REGIONAL WEATHER ROUNDUP
NATIONAL WEATHER SERVICE BOISE ID
1200 PM MST SAT NOV 18 2017

NOTE: "FAIR" INDICATES FEW OR NO CLOUDS BELOW 12000 FEET
WITH NO SIGNIFICANT WEATHER AND/OR OBSTRUCTIONS TO VISIBILITY

IDZ012-014-182000-
SOUTHWEST IDAHO


CITY           SKY/WX    TMP DP  RH WIND       PRES   REMARKS
BOISE          MOSUNNY   43  24  47 E15       30.39F
CALDWELL       MOSUNNY   44  25  47 SE13      30.41F
MOUNTAIN HOME  SUNNY     38  26  61 E12       30.41F WCI  31
$$

IDZ016-017-182000-
SOUTHCENTRAL IDAHO


CITY           SKY/WX    TMP DP  RH WIND       PRES   REMARKS
BURLEY         SUNNY     41  21  44 SW12      30.41F
JEROME         SUNNY     38  22  52 E6        30.42F WCI  33
TWIN FALLS     SUNNY     39  22  50 S9        30.41S WCI  33
$$

IDZ019>023-182000-
SOUTHEAST IDAHO


CITY           SKY/WX    TMP DP  RH WIND       PRES   REMARKS
IDAHO FALLS    CLOUDY    33  23  66 SW14      30.43F WCI  23
POCATELLO      MOSUNNY   39  20  46 W8        30.43F WCI  33
REXBURG        CLOUDY    30  22  72 SW12      30.42F WCI  20
$$

IDZ006-010-011-018-031-032-182000-
CENTRAL IDAHO MOUNTAINS


CITY           SKY/WX    TMP DP  RH WIND       PRES   REMARKS
MCCALL         MOSUNNY   27  20  75 CALM      30.33S
HAILEY         MOSUNNY   30  12  47 CALM      30.40F
STANLEY          N/A     14   7  73 N5        30.36F WCI   6
SALMON         MOSUNNY   35  16  45 NE7       30.38F WCI  29
CHALLIS        PTSUNNY   30  14  51 CALM      30.37F
$$

IDZ002-004-006-007-026-182000-
NORTHERN IDAHO


CITY           SKY/WX    TMP DP  RH WIND       PRES   REMARKS
LEWISTON       CLOUDY    43  34  70 VRB3      30.35F
LOWELL           N/A     40  36  86 CALM      30.41F
COEUR D`ALENE  CLOUDY    40  33  76 S7        30.31F
MULLAN PASS    CLOUDY    24  20  84 SW6       30.21F WCI  17
$$



USA.gov is the U.S. government's official web portal to all federal, state and local government web resources and services.